Wind_Speed
110 113 115 118 117 115 114 112 111 109 108 109 110 107 104 103 102 97 93 92 91 90 90 88 86 88 90 88 86 82 77 75 73 71 71 70 68 68 65 61 58 55 53 51 49 47 45 43 41 39 38 37 36 35 34 32 30 29 28 28 28 27 26 27 27 27 28 28 28 29 29 28 28 27 27 27 28 29 29 29 29 29 29 28 28 27 27
109 113 115 117 117 116 115 115 114 113 112 111 109 105 103 102 101 100 98 97 94 94 94 92 90 89 87 85 87 83 77 77 75 72 72 71 69 67 64 59 56 54 53 52 50 49 47 45 43 41 40 40 39 38 36 34 33 31 30 30 29 29 28 28 28 27 27 27 28 29 29 29 29 29 28 28 28 29 30 30 30 31 31 31 30 30 29
107 111 114 116 117 116 116 117 117 117 115 112 107 104 103 101 101 102 101 98 95 96 96 93 92 91 84 82 86 85 78 77 77 74 72 70 68 67 64 60 57 55 55 54 53 50 48 46 45 44 43 43 42 40 38 36 35 33 32 32 31 30 30 29 29 28 27 28 28 28 30 30 30 30 30 30 30 30 30 31 31 31 32 33 33 32 31
105 109 113 116 117 117 118 119 118 118 116 111 107 105 104 103 103 103 102 98 96 97 96 93 93 94 87 82 86 88 82 78 79 77 73 70 68 67 65 62 59 58 57 57 55 53 51 49 47 46 46 46 44 42 41 39 38 36 35 35 34 32 31 30 30 29 29 28 28 28 29 30 31 32 32 32 32 32 32 32 32 32 33 34 34 34 34
102 106 111 115 117 118 120 119 118 117 114 111 109 106 106 107 107 106 104 101 100 100 96 92 92 95 92 86 86 90 89 85 82 79 75 71 69 66 63 61 61 59 58 58 57 55 54 52 50 50 50 49 47 46 44 42 40 38 38 37 35 33 32 32 32 31 30 29 29 28 29 30 31 32 33 33 34 34 34 33 33 33 33 35 35 35 35
99 104 110 115 118 118 118 117 117 116 114 112 111 109 107 108 109 108 107 106 106 102 95 92 93 94 94 92 90 92 93 89 84 79 74 70 70 68 63 61 62 62 61 61 60 58 57 55 54 54 53 52 50 49 45 42 40 39 39 37 36 35 34 34 34 32 31 30 30 29 29 30 31 32 34 35 35 36 35 35 35 35 35 35 35 36 36
96 102 109 115 117 115 115 116 117 116 114 114 113 111 110 110 110 109 107 108 109 103 95 94 95 95 96 96 95 95 94 89 84 80 76 71 70 69 65 61 63 65 64 63 62 60 59 59 57 57 56 55 52 49 46 44 42 41 40 39 38 37 36 36 36 34 33 32 31 31 31 32 32 33 34 35 36 37 37 37 37 37 37 36 36 36 37
93 100 107 112 114 112 112 114 115 115 114 114 114 113 111 110 109 107 107 108 109 105 100 98 98 98 100 100 99 98 95 88 83 81 80 76 73 71 67 62 64 66 65 64 63 61 60 61 60 59 58 57 54 51 48 46 44 43 41 40 39 39 38 38 38 37 35 34 33 33 33 33 34 34 35 36 37 38 38 38 39 39 39 39 38 37 37
90 96 102 107 110 109 109 111 114 115 114 113 114 113 111 109 108 108 109 110 111 108 104 101 100 101 103 103 101 99 94 89 87 84 82 80 76 74 70 66 65 66 65 64 63 62 62 63 62 61 60 59 56 52 50 48 46 44 42 41 41 41 40 41 40 39 37 36 36 36 35 35 36 36 36 37 38 38 39 39 40 40 40 40 40 39 37
87 93 99 103 105 105 105 108 112 114 114 113 113 114 113 112 110 109 110 111 111 110 106 103 102 104 106 104 102 98 93 91 90 88 84 81 78 75 73 69 68 68 66 64 63 63 65 65 64 63 62 59 56 53 51 49 48 45 44 44 44 43 43 43 42 41 39 39 39 38 37 37 37 37 38 39 39 40 40 40 41 41 42 41 41 40 39
83 90 96 99 100 101 104 108 111 114 114 113 114 115 115 115 113 111 111 111 111 110 108 106 105 107 107 105 101 97 94 93 92 89 87 84 80 76 74 71 70 70 69 67 66 66 67 67 66 64 62 59 56 54 52 51 49 48 46 46 46 46 46 45 44 42 41 40 40 39 39 39 38 39 39 40 41 41 41 41 41 42 42 43 43 42 41
81 86 90 93 94 98 102 107 110 113 114 113 115 116 115 114 114 112 111 111 110 110 110 109 108 108 108 104 99 96 95 95 93 91 89 87 83 79 75 72 71 71 70 69 69 69 69 69 67 65 62 59 56 54 53 52 51 50 49 49 48 48 47 46 45 44 43 42 41 41 40 40 39 39 40 41 41 42 42 42 42 43 43 44 44 44 43
78 82 84 87 90 95 101 106 109 112 114 114 116 115 113 114 114 112 110 111 111 112 112 112 111 110 108 104 99 97 97 96 94 92 90 89 87 83 78 74 73 71 71 71 71 71 71 70 68 65 62 58 57 57 56 54 52 53 52 51 50 49 48 47 46 46 46 44 44 43 42 41 40 40 40 41 41 42 42 42 43 43 44 44 45 45 45
74 77 79 82 86 93 100 106 109 112 114 115 114 112 112 114 115 112 111 111 113 114 114 114 113 111 109 105 101 99 98 96 95 94 92 89 87 85 81 77 75 73 72 72 73 74 73 71 68 65 61 60 59 59 57 56 55 56 55 53 51 50 50 49 49 49 48 46 45 45 43 42 41 41 41 41 41 42 43 43 43 44 44 44 44 45 45
69 72 75 78 83 89 97 104 109 112 113 113 111 112 114 115 115 114 113 112 112 114 114 114 114 112 110 107 103 101 99 97 96 95 93 90 87 85 83 80 77 75 73 74 75 75 74 72 69 65 63 62 62 61 60 59 58 58 57 54 52 53 52 51 52 51 49 47 47 46 44 43 42 41 41 41 41 42 43 43 43 44 44 44 44 45 46
64 67 71 75 80 86 94 102 107 110 112 111 111 112 113 113 114 114 114 112 111 112 113 114 114 113 111 108 105 102 100 98 97 95 93 91 88 86 84 82 79 76 75 76 77 77 75 72 69 66 66 65 64 64 64 61 58 60 59 56 55 55 54 53 53 53 50 48 48 47 45 43 42 41 41 41 41 42 43 43 43 43 43 43 44 45 46
61 64 68 73 78 84 91 98 103 107 110 110 109 109 110 111 112 113 113 111 109 109 112 114 114 114 112 110 107 104 101 99 98 96 94 92 89 87 85 83 81 78 77 77 78 77 74 72 70 69 68 68 67 67 65 61 59 61 60 58 57 57 55 54 55 53 51 49 48 46 45 43 42 42 42 42 42 43 43 43 43 44 43 44 45 45 46
58 62 66 71 76 81 87 92 98 103 106 107 106 106 108 110 111 112 113 112 109 107 109 113 114 114 113 111 109 105 102 101 99 96 94 92 90 88 86 85 83 81 79 79 79 76 73 72 72 71 70 70 70 69 65 62 62 63 61 59 59 58 56 56 56 54 52 50 49 47 45 44 43 43 43 43 43 43 43 44 44 44 44 44 45 46 47
55 59 63 68 72 77 82 87 93 99 102 104 105 105 106 108 110 111 113 112 109 107 108 111 114 114 113 112 110 106 104 102 99 96 94 93 91 89 87 85 83 82 81 80 78 76 74 73 72 72 72 72 71 69 66 64 65 65 62 61 60 59 57 57 57 54 53 51 49 47 46 45 44 44 44 44 45 45 45 46 46 45 45 45 45 46 47
53 57 61 65 70 74 78 82 87 94 99 103 105 105 106 107 109 111 112 113 110 107 107 109 113 114 113 112 111 108 105 103 100 96 94 93 91 89 87 85 84 83 82 80 78 76 74 73 73 74 73 73 72 70 68 68 67 65 64 63 62 60 59 58 57 55 53 51 49 48 47 46 46 46 46 46 47 47 47 47 46 46 46 46 46 47 47
51 55 58 62 66 71 75 79 83 89 95 100 104 104 105 106 108 110 112 113 111 108 107 108 111 113 114 112 111 108 106 103 99 95 93 93 91 89 86 84 84 83 82 80 79 77 75 75 75 75 74 73 73 71 70 69 68 66 65 64 63 62 61 59 57 56 54 52 50 49 49 48 48 48 48 48 48 47 47 46 46 47 46 47 47 48 48
48 52 55 59 63 68 72 76 80 84 90 97 102 103 104 105 108 110 111 112 112 109 107 107 110 113 113 112 111 108 106 104 99 95 93 92 90 88 87 85 84 83 82 80 79 78 78 78 77 76 75 74 73 72 71 69 68 67 66 65 65 63 62 60 58 56 54 52 51 51 50 50 50 50 49 49 48 47 46 46 46 46 46 46 47 47 48
46 49 52 56 61 65 70 73 77 81 87 94 100 103 104 105 108 110 111 112 112 110 108 107 109 111 113 112 110 108 106 103 96 90 91 92 90 87 87 87 85 84 83 81 80 79 79 79 77 76 75 74 73 72 71 69 68 67 66 66 65 64 62 60 58 56 54 53 53 53 52 52 52 51 50 50 48 47 47 46 46 46 46 47 47 47 48
42 46 50 54 59 63 67 71 74 78 84 92 98 102 104 106 108 110 111 112 112 112 110 108 108 110 112 111 110 108 105 100 89 78 78 87 92 90 88 87 86 85 84 82 81 80 79 78 77 76 75 75 74 73 71 70 69 69 68 67 66 64 63 61 58 57 55 55 55 55 54 53 53 52 51 50 49 48 48 48 47 47 47 48 48 48 49
40 43 48 52 57 61 65 68 71 75 82 90 97 101 105 107 108 109 111 112 113 113 112 110 109 110 110 109 109 107 102 99 89 71 61 72 85 91 91 88 86 86 85 83 82 81 79 78 78 77 76 76 75 73 72 71 71 70 69 68 67 65 63 61 58 57 57 57 57 56 55 54 54 53 52 51 49 49 49 49 48 48 48 48 49 49 50
38 42 46 51 55 59 62 66 69 73 80 87 94 100 104 106 108 110 112 113 114 114 113 111 110 110 109 107 108 105 100 98 92 72 54 57 72 83 90 92 89 86 86 84 82 81 80 79 79 78 77 77 76 74 73 73 72 71 70 69 67 66 63 60 59 59 59 58 58 56 55 55 55 54 53 53 52 51 50 50 49 48 49 49 49 50 51
36 40 45 49 53 57 60 64 68 72 78 85 92 99 103 106 109 111 112 114 114 114 114 112 111 110 108 106 106 104 100 98 95 78 58 55 64 74 84 92 92 89 87 84 82 82 81 81 80 79 79 78 77 75 75 74 73 72 71 69 67 66 64 62 61 61 60 59 58 57 56 56 56 55 54 55 55 54 52 51 50 50 50 50 50 50 51
34 38 42 47 52 55 59 62 66 70 76 83 91 98 103 107 110 112 112 114 115 114 114 113 111 109 107 105 104 104 101 98 97 85 67 58 61 68 77 86 91 91 90 86 83 83 83 83 82 81 80 79 78 77 76 75 74 73 72 70 68 66 64 63 63 62 61 60 59 57 57 57 57 56 56 56 56 54 53 52 52 51 50 50 50 51 52
32 36 40 45 49 54 57 60 64 69 74 82 90 97 103 107 111 112 112 114 115 114 113 113 111 109 107 104 103 105 102 97 95 86 69 59 61 67 73 80 85 89 90 89 86 86 86 85 84 83 82 81 79 78 77 76 75 74 72 70 68 66 65 64 64 63 61 61 60 59 59 59 58 57 57 56 55 53 52 52 52 51 51 50 50 51 51
30 34 39 43 47 51 54 58 62 67 73 80 89 97 103 107 110 112 112 113 113 112 112 113 111 109 107 104 103 105 102 99 95 83 64 56 61 67 71 76 80 83 87 89 90 90 89 87 85 84 82 81 79 78 77 76 75 74 72 70 68 66 66 66 65 64 63 62 62 60 59 59 58 58 57 56 55 53 53 53 52 52 52 51 51 50 50
30 33 37 41 45 49 52 56 61 66 72 80 87 95 102 106 109 111 111 111 111 111 111 112 111 109 107 104 104 104 102 100 97 83 62 56 62 66 69 73 76 79 82 85 88 91 92 91 88 86 84 82 80 78 77 77 76 75 73 71 69 68 67 67 66 64 64 64 62 61 60 60 60 59 58 57 55 54 53 52 52 52 53 52 51 51 50
30 33 37 41 44 47 51 55 60 65 72 79 87 94 100 104 107 109 109 110 110 110 111 111 110 109 107 105 104 104 102 101 100 87 68 61 66 69 69 70 73 78 82 83 84 87 90 92 91 88 84 81 79 78 77 77 76 75 74 72 71 70 69 68 67 65 65 64 62 60 60 61 61 60 59 57 56 54 53 53 53 53 53 52 52 51 51
31 33 37 41 44 47 51 55 60 65 72 79 87 94 99 102 105 107 108 108 109 109 111 111 110 110 109 106 105 104 103 103 103 91 73 64 67 69 69 68 69 73 79 84 85 85 85 87 88 87 84 80 77 76 76 76 76 75 75 74 73 72 70 69 68 66 65 64 62 61 60 60 61 60 58 56 55 55 54 54 54 54 55 54 53 52 52
31 33 37 41 44 47 51 56 60 66 72 80 87 94 100 104 107 108 109 109 109 110 112 112 112 111 110 107 106 105 104 105 106 97 81 70 68 68 66 67 68 69 73 80 85 87 85 82 80 81 83 82 79 75 74 75 75 76 75 74 73 73 72 71 69 66 64 64 64 62 61 60 60 59 56 54 54 54 55 56 56 57 57 57 55 55 55
30 33 37 41 44 48 52 57 62 67 74 81 88 95 101 105 109 110 111 112 112 113 113 113 113 112 111 108 107 107 106 106 107 103 90 78 72 69 67 67 68 69 71 75 81 85 85 83 79 76 77 80 80 78 75 73 73 72 70 69 70 72 71 69 66 62 60 63 64 63 61 60 59 57 54 52 52 54 55 55 56 57 58 59 59 60 59
29 33 37 42 46 49 53 58 63 68 75 82 88 95 100 104 107 110 112 113 114 114 115 115 114 113 111 109 108 108 108 107 107 106 99 86 76 72 71 70 70 73 74 76 79 82 83 83 82 79 77 76 76 74 72 70 70 69 66 65 67 70 70 67 62 59 60 63 65 64 62 60 59 57 54 52 52 54 55 56 57 58 59 60 60 61 62
28 32 37 43 47 51 54 59 64 69 76 83 89 95 99 103 105 109 111 113 113 114 115 115 114 113 112 111 109 110 110 108 105 105 103 93 80 73 72 73 73 75 77 78 80 82 83 83 83 83 82 81 79 74 69 67 69 69 68 66 67 67 67 65 63 62 62 64 65 65 63 61 60 59 57 54 53 53 52 52 54 56 59 61 63 63 63
29 32 37 43 48 52 55 60 65 70 76 83 90 95 99 102 104 107 110 112 113 113 114 114 114 112 112 111 111 111 112 110 104 101 101 97 87 77 74 74 74 74 76 78 80 81 82 83 85 85 86 86 85 82 77 73 71 70 68 68 68 68 67 65 64 64 64 65 65 65 64 63 60 58 56 54 51 49 47 48 51 56 60 62 62 61 60
30 33 37 42 47 52 55 60 65 71 77 84 90 95 99 102 104 106 109 111 112 113 113 112 112 112 112 112 112 112 112 112 106 99 98 98 93 86 80 78 76 75 76 77 77 77 78 79 81 85 87 87 87 86 85 82 79 74 69 66 67 70 71 70 68 67 66 66 65 64 64 63 61 60 59 57 55 53 52 51 53 58 61 60 59 59 60
30 33 37 41 46 50 55 59 65 71 77 84 89 94 98 101 103 106 108 110 111 112 112 112 112 112 112 112 112 112 113 114 110 103 99 98 96 92 87 83 79 78 78 77 75 75 75 75 76 79 83 86 87 88 87 87 87 84 78 72 70 69 69 68 67 66 65 66 67 67 67 66 65 64 65 65 63 61 59 55 54 58 62 61 60 61 62
31 34 37 41 45 49 54 59 65 71 78 84 89 94 97 100 102 105 107 109 110 111 112 112 112 112 112 112 113 113 114 115 114 108 103 101 98 94 91 88 84 81 79 78 76 74 74 75 74 74 76 80 84 88 89 89 89 89 88 85 81 77 72 68 66 65 65 68 70 71 73 73 71 69 68 68 68 68 66 63 61 62 64 61 56 54 55
32 34 38 41 45 48 53 58 64 71 77 84 89 94 97 99 101 104 106 108 110 111 112 112 111 111 112 112 113 113 114 116 116 112 107 104 100 96 94 92 90 85 82 80 77 74 72 72 73 73 73 75 79 84 88 90 91 91 91 91 90 88 83 78 73 69 70 72 73 75 77 78 77 74 72 71 70 71 71 70 68 69 70 67 61 56 55
33 34 37 42 45 49 52 58 64 71 77 84 89 93 96 99 101 103 105 108 110 111 111 111 111 111 112 113 113 114 114 115 116 114 109 105 103 101 97 94 92 89 87 84 81 77 73 72 72 72 72 72 75 80 86 89 91 92 92 92 92 92 91 88 83 79 76 75 75 76 77 77 77 76 75 74 74 73 73 73 73 73 74 75 74 71 67
33 34 38 42 46 49 52 57 63 70 76 83 88 93 96 99 101 103 105 107 109 110 111 111 111 112 112 112 114 114 114 115 117 116 110 103 102 104 102 98 93 91 89 88 86 83 79 76 75 75 74 73 74 77 82 86 89 91 92 92 93 93 93 92 90 86 83 80 79 78 77 76 76 76 76 76 76 75 74 74 75 75 76 77 79 79 78
33 35 38 42 46 50 53 57 63 69 75 82 88 92 96 99 101 103 105 106 108 109 110 111 111 112 112 113 114 115 114 115 117 116 111 103 101 103 103 101 98 94 91 90 89 87 84 81 80 80 79 77 76 77 79 82 86 89 91 92 92 93 92 92 91 90 88 86 84 82 80 79 78 77 78 77 76 76 76 75 75 75 76 76 78 80 81
33 35 38 42 46 50 54 58 62 68 74 81 87 92 95 98 100 102 104 105 107 108 109 110 111 112 113 113 114 115 115 115 117 117 112 106 103 102 102 102 102 100 96 94 92 89 87 86 85 84 82 81 79 79 80 81 82 85 87 89 91 92 92 92 91 91 90 89 87 86 84 83 82 81 80 78 77 77 77 76 74 73 73 74 76 78 80
33 35 38 42 46 50 54 58 62 67 73 79 85 90 94 97 100 101 103 104 105 107 109 110 111 113 114 114 115 115 116 116 118 119 116 110 107 105 103 102 103 103 102 99 97 94 92 90 89 87 86 84 83 82 82 82 82 83 84 86 87 89 90 90 90 90 89 89 88 87 85 84 83 83 81 79 78 78 78 77 75 73 73 74 76 77 79
33 35 38 41 45 49 54 58 62 67 72 78 84 89 93 96 99 101 102 103 104 106 108 109 111 113 114 115 115 116 116 117 119 120 119 116 112 110 106 103 103 104 104 103 101 99 97 96 94 92 89 88 87 87 86 86 85 85 84 84 84 85 86 87 87 87 87 86 84 83 82 81 81 81 80 78 78 78 78 77 76 76 76 77 77 78 79
33 35 37 40 44 48 53 57 62 66 71 76 82 87 91 95 98 100 101 103 104 105 107 109 111 113 115 115 116 116 117 118 119 120 121 119 117 115 111 107 105 105 106 105 104 103 102 101 99 98 95 93 92 91 90 90 90 89 88 87 86 86 86 86 86 86 86 85 83 82 81 80 80 80 80 79 79 79 79 78 78 78 78 78 79 80 81
32 34 37 40 43 47 51 56 60 65 70 75 80 85 90 93 96 99 100 102 103 104 105 108 110 112 114 115 116 117 118 118 119 120 121 120 119 117 115 111 107 106 106 106 106 105 104 104 103 102 100 98 96 94 93 92 92 92 92 92 91 91 90 90 89 88 87 87 86 84 83 82 82 83 83 82 82 81 81 81 81 81 81 81 82 83 84
32 34 36 39 42 46 50 54 58 63 68 73 78 83 87 91 95 98 99 101 102 103 104 106 109 111 113 115 116 117 118 119 119 120 121 121 121 120 118 114 110 107 106 106 105 105 104 103 102 102 101 99 97 96 95 94 93 92 92 92 92 93 93 93 93 92 91 89 88 87 85 84 84 85 86 85 85 85 84 83 83 84 85 86 87 87 87
32 33 36 38 41 44 48 52 56 60 65 70 76 80 85 89 93 96 98 100 101 102 103 105 107 109 112 114 116 117 118 119 120 120 121 122 122 122 121 117 112 109 107 105 104 104 103 102 100 100 100 99 98 97 96 95 94 93 92 91 90 90 91 92 94 95 94 93 91 89 87 85 85 85 86 86 86 85 85 85 85 86 88 90 91 91 91
Wind_Direction
220 220 220 220 220 218 218 217 217 217 217 216 215 213 211 210 209 208 209 210 209 209 207 206 210 217 219 219 220 219 217 219 218 216 216 216 215 216 218 218 218 218 218 219 220 221 223 226 226 225 224 224 224 224 224 222 221 223 225 228 230 231 230 231 231 229 227 226 227 229 232 233 233 233 235 238 241 244 245 246 246 246 247 247 248 249 251
219 220 220 220 219 218 217 216 215 215 216 216 215 213 212 211 209 208 208 209 209 209 208 206 208 216 219 218 219 220 218 219 219 217 218 219 219 219 220 219 219 219 219 219 220 221 223 225 226 226 225 224 224 224 224 223 222 222 224 226 228 230 231 233 234 234 233 230 228 229 231 234 234 234 235 237 239 242 244 245 246 246 246 246 246 247 248
218 219 220 220 219 218 217 217 215 215 215 215 214 212 212 212 210 210 209 209 209 210 209 207 208 214 217 217 218 219 218 219 220 219 218 220 221 220 219 218 217 218 219 219 220 220 221 223 224 225 225 224 224 224 223 224 223 222 224 226 227 230 232 234 236 237 237 236 233 231 232 234 236 236 236 236 237 239 242 243 244 245 246 247 247 247 247
218 218 219 220 219 217 217 217 216 214 214 214 213 211 210 211 211 211 210 210 210 211 209 208 209 214 216 215 216 217 217 218 220 219 217 218 219 220 220 218 216 217 218 219 219 220 220 221 223 224 225 225 225 224 223 222 223 223 224 225 227 229 231 234 236 237 238 239 239 237 236 236 237 237 237 237 237 238 239 241 242 244 245 246 247 248 248
217 217 218 219 219 217 217 217 216 214 213 213 212 211 209 209 209 209 208 209 211 212 209 207 210 214 216 216 215 216 216 216 218 219 217 216 218 219 219 219 218 218 218 218 218 219 219 220 221 222 224 225 224 224 223 223 224 224 225 226 228 229 231 233 235 236 237 239 241 241 242 241 241 241 240 239 238 239 239 239 241 243 244 245 246 247 248
217 217 217 219 219 218 217 216 216 215 212 211 211 210 209 209 209 208 206 208 210 211 208 207 210 215 217 217 216 217 216 215 215 218 217 216 217 219 218 219 219 218 218 218 218 218 218 218 219 221 223 224 224 225 225 225 225 227 228 228 229 231 232 234 235 236 237 238 240 241 242 243 244 244 244 243 242 242 241 240 240 241 243 245 247 247 247
218 217 217 218 219 218 216 215 216 215 212 211 211 210 209 208 209 207 206 207 210 209 207 206 209 214 217 217 216 217 217 214 214 216 217 215 215 216 215 217 219 218 217 218 218 217 218 217 218 220 222 224 224 225 225 224 224 226 228 229 230 232 234 235 237 237 237 238 239 240 241 242 244 245 246 247 246 245 244 243 242 241 242 243 246 248 248
218 218 218 218 218 217 215 214 216 215 213 211 210 210 209 208 208 207 206 207 209 208 206 206 208 213 217 216 216 217 217 214 212 214 217 216 215 215 214 215 217 217 217 218 217 216 217 218 218 219 221 223 223 223 224 224 224 225 227 229 231 232 234 236 237 238 238 238 239 240 241 242 243 244 246 248 248 248 247 246 245 244 244 243 245 247 249
217 218 218 218 218 216 214 214 215 215 213 211 209 209 209 208 207 207 206 207 208 207 206 206 207 212 217 216 215 217 217 214 212 212 215 217 217 216 216 216 216 216 216 217 217 217 218 219 219 220 222 223 223 222 223 224 224 224 226 228 230 232 234 236 237 238 238 239 240 242 242 242 243 244 245 247 248 249 249 248 248 247 247 246 246 246 249
217 217 217 217 216 215 214 213 214 215 213 211 209 208 208 207 207 206 206 206 207 207 206 206 207 212 217 217 215 216 216 215 213 212 213 216 217 216 216 216 216 215 216 217 217 218 219 220 221 221 223 224 224 223 223 223 223 223 224 227 230 231 233 235 237 238 239 240 242 244 244 245 245 246 247 247 248 249 250 250 250 249 249 249 248 248 248
217 217 217 216 214 213 213 213 213 214 213 211 209 208 207 207 206 205 205 206 206 206 206 206 208 212 216 217 215 215 216 216 215 213 212 214 216 215 215 216 216 216 217 218 218 219 220 221 222 222 223 224 224 224 224 224 224 223 224 227 229 231 233 236 238 240 241 242 244 246 247 248 248 248 248 248 249 249 250 251 251 250 250 249 249 249 248
216 217 217 215 212 211 211 212 212 213 213 211 209 208 206 206 206 205 204 204 205 206 206 207 209 212 216 217 214 214 216 216 216 214 212 213 215 216 215 215 215 216 217 218 219 220 221 222 223 223 224 224 224 224 225 225 225 225 225 226 229 231 234 237 239 241 242 242 244 246 247 249 250 250 251 251 251 251 251 252 252 252 251 250 250 250 250
216 216 216 215 212 209 210 211 211 212 212 212 210 207 205 206 206 205 204 203 204 205 206 207 209 212 215 216 214 213 216 216 216 216 214 213 215 217 217 216 216 215 216 217 219 221 222 223 224 224 224 224 224 225 225 225 225 226 226 226 229 231 234 236 238 240 241 242 244 246 247 249 251 251 252 252 252 252 252 252 253 253 253 252 251 251 251
216 215 214 214 212 209 209 209 210 210 211 211 209 206 205 205 205 204 203 203 204 205 205 206 209 211 214 216 214 213 215 216 216 216 216 214 214 217 217 217 216 216 216 217 219 221 222 224 224 224 224 224 224 225 225 225 225 228 228 228 229 232 233 235 238 239 241 242 245 247 249 251 252 254 254 253 252 252 252 253 253 254 254 254 254 253 252
215 215 213 212 211 210 209 209 209 209 210 210 209 206 204 204 204 203 203 203 203 204 205 206 208 210 213 214 214 213 215 216 216 217 217 215 214 215 217 217 216 216 216 217 220 222 223 224 225 224 224 225 225 226 226 225 225 229 231 230 231 232 234 236 238 240 242 244 246 249 251 254 256 257 257 256 254 253 253 253 254 255 255 256 255 254 253
213 213 212 212 211 209 209 209 208 208 209 209 208 206 204 203 203 202 202 202 203 204 205 206 208 210 212 213 214 213 214 215 216 216 217 216 214 215 216 217 217 216 217 217 220 222 223 224 224 224 224 225 226 227 227 226 226 230 232 232 232 234 235 237 240 242 243 245 248 251 254 256 258 259 259 257 255 253 253 253 254 255 256 256 255 254 254
212 211 210 210 210 209 210 210 209 208 208 208 207 206 204 203 202 202 202 202 202 204 205 206 208 210 211 213 213 213 214 215 215 216 217 217 215 214 215 217 217 217 217 218 220 222 223 224 224 224 225 226 226 228 228 227 228 230 232 232 233 235 236 238 241 243 245 247 249 252 255 257 259 260 259 257 255 253 253 253 254 255 256 256 255 254 254
212 211 210 209 209 209 210 209 209 208 207 206 206 205 203 202 202 201 201 201 202 203 205 206 208 210 211 212 213 212 213 215 216 215 216 217 216 214 215 216 217 218 218 219 221 222 223 224 225 225 226 226 228 229 229 228 229 231 233 233 235 236 238 240 242 244 246 248 250 253 255 257 258 259 258 256 254 252 251 252 253 253 254 254 254 254 254
211 210 210 209 208 209 209 209 208 207 207 205 204 204 202 201 201 200 201 201 201 202 204 206 208 209 211 212 212 212 213 215 216 215 215 216 216 215 215 215 216 218 219 220 221 221 222 224 226 227 227 228 229 230 230 229 230 232 233 234 235 237 238 240 243 245 247 249 251 253 255 256 258 257 256 254 252 250 250 250 251 252 252 253 253 254 254
210 210 209 208 207 208 208 208 207 206 205 204 203 202 201 200 200 200 200 200 201 202 204 206 208 209 210 212 212 212 213 215 216 215 215 216 217 216 216 216 216 218 219 220 221 222 222 223 225 227 228 229 230 231 230 230 231 232 233 235 236 237 239 241 243 246 248 250 251 253 254 256 256 256 254 253 251 250 250 251 252 253 254 254 255 255 255
209 209 208 207 207 207 206 206 206 205 204 203 203 202 200 199 199 199 199 200 201 202 204 206 208 209 210 212 212 212 212 214 215 215 216 217 217 217 217 217 217 218 219 221 221 222 223 224 225 227 228 230 231 231 232 232 232 233 234 235 237 238 239 241 244 246 248 249 251 252 254 255 256 256 255 253 252 251 251 252 253 254 255 256 257 257 257
209 208 207 206 206 206 205 205 204 203 202 202 202 201 199 198 197 198 199 199 200 202 204 206 208 209 210 211 212 212 212 213 214 215 217 219 218 218 217 218 218 219 220 220 221 222 223 224 225 227 228 230 232 233 233 234 234 235 235 236 237 239 240 242 244 246 248 249 250 252 253 255 256 257 256 255 253 252 252 252 253 255 256 257 258 258 258
209 207 205 205 205 204 204 204 203 201 200 200 201 200 198 197 196 197 198 199 200 202 204 206 208 209 209 210 212 212 212 212 213 216 219 221 220 219 219 218 219 219 220 221 221 222 223 225 226 227 229 230 232 233 234 235 236 236 236 237 238 240 241 243 245 246 248 249 250 252 254 256 257 258 257 256 254 252 252 252 253 254 255 257 258 258 259
209 206 204 203 204 203 203 203 202 199 198 199 199 199 197 196 196 196 197 198 200 202 204 206 208 209 209 210 211 212 212 211 210 214 221 224 223 222 221 220 220 220 221 221 222 223 224 225 226 227 229 230 231 233 234 235 236 237 237 238 240 241 243 244 246 247 248 249 251 254 256 257 258 259 259 257 255 254 253 252 253 254 255 257 258 259 259
207 205 203 202 202 202 202 201 200 198 197 197 198 198 196 195 194 195 196 198 199 202 204 205 207 209 209 209 210 211 211 209 207 208 217 224 225 224 223 222 221 221 221 222 222 223 225 226 226 227 229 230 231 232 233 235 236 237 238 239 241 242 244 246 247 249 250 251 254 256 258 259 260 261 260 257 256 255 254 253 254 255 256 257 258 259 260
204 203 202 201 201 201 201 200 199 197 196 196 196 197 196 194 194 194 195 197 199 201 203 205 207 208 208 208 209 210 210 209 207 205 212 222 226 226 225 224 224 223 222 222 223 224 225 226 227 228 229 230 231 232 233 235 236 237 239 240 242 243 245 247 248 250 251 253 255 257 259 260 261 261 260 258 256 255 255 255 256 256 257 258 259 260 260
204 202 200 200 200 200 200 199 197 196 195 195 195 195 195 194 193 194 195 197 199 201 203 205 206 207 208 207 208 209 209 208 206 205 209 220 225 227 227 226 225 224 223 223 224 226 226 227 227 229 229 230 231 232 233 235 236 238 239 241 243 244 246 248 249 250 252 254 256 258 260 260 261 261 260 259 257 257 257 258 258 257 258 259 259 260 261
203 201 199 199 200 199 199 198 197 195 194 193 194 194 194 193 193 193 194 196 199 201 203 204 206 207 207 206 206 207 207 207 205 206 211 220 226 229 229 227 226 225 224 223 224 226 228 228 228 229 230 230 231 233 234 235 237 239 240 242 243 245 247 248 250 251 253 255 257 258 259 259 260 260 260 259 259 260 260 260 260 260 260 260 260 261 261
201 200 199 199 199 199 198 197 196 194 193 193 193 194 193 193 193 193 194 196 198 200 202 204 206 206 206 205 205 206 206 205 203 204 210 218 224 229 230 229 227 227 226 224 223 225 228 229 229 229 230 231 232 233 235 236 238 239 240 242 243 245 247 248 250 251 253 255 256 258 258 259 260 260 259 260 260 261 261 261 262 262 262 261 261 262 263
200 199 199 199 199 198 197 196 195 194 192 192 193 193 193 193 193 193 194 196 198 200 202 204 205 206 205 205 204 205 205 204 201 200 205 212 218 224 229 229 228 227 226 226 225 225 227 229 229 230 231 232 232 234 235 237 238 240 241 242 243 245 247 248 250 252 254 256 257 259 259 260 259 258 258 258 259 261 261 262 263 263 263 263 262 263 263
201 198 198 198 198 197 196 195 194 193 192 192 192 193 193 193 193 193 194 196 198 200 202 204 205 205 205 204 204 204 204 203 200 199 201 207 213 221 227 229 228 227 226 226 226 227 227 229 230 230 231 231 233 234 236 238 239 240 241 242 243 245 246 248 251 253 255 256 258 259 259 258 258 257 257 258 259 260 261 263 263 264 264 264 264 264 264
200 198 198 198 197 196 195 194 193 192 191 191 192 192 193 193 193 193 194 195 197 200 202 203 205 205 204 204 204 203 203 201 200 200 203 208 212 218 223 226 227 227 226 227 228 228 228 229 229 230 231 233 234 236 237 239 241 242 242 243 244 246 247 249 251 253 255 257 258 258 257 257 257 257 257 258 259 259 260 262 263 264 264 264 265 266 266
200 197 197 197 196 195 193 192 192 191 191 191 192 192 192 192 193 193 194 195 197 199 201 203 204 204 204 204 203 202 202 201 200 200 202 206 209 214 220 223 224 225 225 226 228 228 228 229 229 229 230 232 234 235 237 238 240 242 243 244 245 246 248 251 252 253 255 256 256 255 255 255 256 256 257 258 259 260 261 262 264 264 264 265 266 267 269
203 198 198 197 196 194 192 191 191 190 190 191 192 192 191 192 192 193 194 195 197 199 201 202 203 204 204 203 202 202 201 201 201 201 202 205 208 211 215 220 222 223 224 226 228 229 229 229 229 228 229 230 231 233 235 238 240 242 244 246 248 249 250 251 252 254 255 256 255 254 253 252 253 254 256 258 260 263 264 264 264 264 264 264 265 268 270
210 202 199 197 195 194 193 191 191 190 190 191 192 192 193 193 193 193 193 195 196 198 200 201 202 203 203 202 202 201 201 201 201 202 204 207 210 211 212 214 219 222 223 225 228 228 228 228 228 227 228 229 230 232 235 239 241 243 244 245 247 249 249 249 249 250 252 254 255 255 253 252 251 251 253 256 259 262 265 266 266 266 265 264 265 267 269
215 207 202 198 196 195 194 192 191 191 191 191 192 193 194 194 194 193 194 195 197 198 200 201 202 202 202 202 201 201 201 201 202 204 206 208 211 213 214 214 216 220 223 225 227 228 228 227 227 226 226 227 227 229 232 237 242 246 247 246 244 245 246 247 246 243 243 246 250 252 253 252 251 250 251 254 257 259 263 266 268 267 264 263 264 267 268
215 210 206 201 198 195 194 193 192 192 192 192 193 194 194 195 195 195 195 196 197 199 200 201 201 202 202 201 201 201 201 201 201 204 207 208 209 212 214 215 215 217 221 224 227 228 228 227 226 226 226 227 227 225 225 229 235 240 244 246 246 244 244 243 241 239 238 240 244 247 249 250 251 251 251 252 255 259 264 268 270 268 265 265 267 268 268
213 210 208 205 201 198 196 194 193 193 193 193 194 194 194 195 195 196 197 197 198 199 200 201 202 202 201 201 201 201 201 200 201 203 206 207 206 207 210 212 212 214 218 223 226 227 228 229 228 227 227 228 228 227 224 224 227 231 235 239 242 244 243 241 240 240 241 241 242 244 245 246 248 248 247 248 251 256 260 263 266 268 268 270 271 270 269
213 209 208 207 205 201 198 195 194 194 194 194 195 195 195 195 196 197 198 198 199 199 200 201 202 202 202 201 202 202 201 201 201 202 205 206 206 206 208 211 212 213 216 222 225 227 228 228 228 227 226 226 228 228 227 225 226 227 228 230 235 240 243 244 242 242 243 243 243 243 244 244 244 243 243 244 247 249 251 252 256 260 263 265 268 270 273
215 210 208 208 207 204 200 197 196 195 195 196 196 197 197 196 196 197 198 199 199 200 201 201 201 202 202 202 202 202 202 201 201 203 204 205 206 208 210 212 213 213 216 221 224 226 227 227 227 227 227 226 226 227 227 227 227 226 226 227 230 236 240 242 242 241 242 243 243 242 241 242 242 242 243 245 247 248 247 246 248 253 258 262 266 271 275
215 211 208 208 207 206 203 200 197 196 196 197 197 198 198 198 198 198 198 199 200 201 201 201 201 202 203 202 202 203 202 202 202 204 206 207 207 209 211 213 214 214 217 220 223 225 226 227 227 227 227 226 226 226 226 227 227 227 227 227 229 233 236 238 238 237 237 239 240 239 239 241 242 242 243 245 247 247 246 244 244 248 253 257 260 263 266
215 211 209 207 206 206 205 202 199 198 197 198 198 199 199 199 199 199 200 200 200 201 202 202 202 202 203 203 203 203 203 203 203 205 207 208 209 210 212 215 216 216 217 220 223 224 224 226 227 227 227 226 226 225 225 226 227 227 227 228 229 232 234 236 237 236 235 236 238 238 239 241 242 242 242 243 244 246 247 247 246 247 249 250 250 250 252
214 211 209 208 206 205 205 203 201 200 199 199 199 200 199 199 200 200 201 201 201 202 202 202 202 203 203 204 204 204 204 204 204 206 208 209 210 211 213 215 217 218 218 220 221 222 223 224 225 226 226 226 225 225 225 225 226 228 228 229 229 231 232 234 236 236 235 236 237 239 240 241 242 243 243 242 242 244 246 247 247 248 250 251 250 248 248
215 210 209 209 207 205 204 204 203 201 200 200 200 201 201 200 200 201 202 202 203 203 203 202 203 203 204 204 205 205 205 205 205 206 208 209 211 212 213 215 216 218 219 220 221 222 223 224 225 225 226 226 226 225 225 225 226 228 229 230 231 231 231 233 234 235 235 236 237 239 240 241 242 243 244 244 245 245 245 245 247 248 250 251 251 251 251
217 211 209 209 209 206 204 204 204 203 202 202 202 202 202 202 201 202 203 203 204 204 204 203 203 204 205 205 205 206 205 205 206 207 207 208 209 211 213 214 216 217 219 221 221 222 223 224 225 226 227 227 227 226 225 226 227 228 229 230 231 231 231 232 234 235 236 237 238 239 240 241 243 244 246 246 247 247 246 246 247 247 248 248 250 251 253
217 213 210 209 209 208 206 204 204 204 204 203 203 203 203 203 203 203 204 204 205 205 205 204 204 204 205 206 206 206 206 206 207 207 207 208 209 210 212 214 216 218 220 221 221 222 222 223 225 226 227 228 228 228 228 228 229 229 230 231 232 232 232 233 234 235 236 238 239 240 241 242 243 245 246 247 248 248 248 248 248 248 248 249 249 251 252
218 215 212 210 210 209 207 206 205 205 205 205 205 205 204 204 204 205 205 206 206 206 206 205 205 205 206 207 207 207 207 207 207 208 208 208 210 211 213 215 217 219 221 222 222 222 223 224 225 227 228 228 229 230 231 232 232 232 232 233 233 233 234 234 235 236 237 239 240 241 241 242 243 244 245 247 247 247 247 247 246 246 247 249 251 252 253
219 216 214 212 211 210 209 208 206 206 206 206 206 206 206 206 206 206 206 207 207 207 207 206 206 206 207 208 208 208 208 208 209 209 210 210 211 213 214 215 217 218 220 222 223 224 225 226 227 228 229 230 231 232 234 234 235 235 235 234 234 234 234 234 235 236 237 238 239 240 240 241 242 243 244 245 246 247 247 246 246 247 248 250 252 253 254
222 218 216 213 211 211 211 210 208 207 207 207 207 208 208 208 207 207 208 208 208 208 208 208 207 208 208 208 209 209 210 210 210 211 211 212 213 214 215 216 217 218 220 221 223 225 226 227 229 230 231 233 234 235 236 236 237 237 237 236 236 235 234 234 234 235 236 236 237 238 240 241 242 243 244 244 245 245 246 246 247 249 250 252 254 256 257
224 221 218 216 213 211 212 211 210 209 208 208 208 209 209 209 209 209 209 209 210 210 209 209 209 209 209 210 210 211 211 211 212 212 212 212 213 214 215 216 217 218 220 221 223 225 227 228 229 231 232 234 235 236 237 237 238 238 239 239 238 237 235 234 234 235 236 237 238 239 239 240 241 243 244 245 245 245 246 247 248 249 251 253 255 257 258
225 222 220 218 216 213 212 212 212 211 210 209 210 210 211 211 211 211 211 211 211 211 211 211 211 211 211 211 211 212 212 213 213 213 213 213 213 214 215 216 217 219 220 222 223 225 227 228 230 231 232 233 234 235 236 237 238 239 239 240 239 238 237 235 235 235 237 238 239 240 240 241 242 243 244 245 246 247 248 248 249 249 250 252 253 256 258
228 224 222 221 219 216 214 213 213 213 212 211 211 211 212 212 213 212 212 213 213 213 213 213 212 212 212 212 213 213 213 214 214 214 215 215 214 215 215 216 217 219 220 222 224 226 227 228 230 231 232 233 234 234 235 236 237 238 239 239 239 239 239 238 237 237 238 239 240 241 242 242 243 244 245 247 248 250 250 250 250 250 251 252 253 255 257
Height
10605 10611 10618 10626 10638 10653 10667 10678 10690 10701 10711 10718 10726 10742 10758 10767 10776 10790 10801 10806 10812 10820 10825 10831 10833 10829 10837 10851 10858 10865 10876 10883 10889 10894 10895 10899 10905 10909 10914 10919 10925 10930 10934 10936 10941 10945 10948 10951 10954 10957 10960 10962 10964 10966 10968 10970 10972 10974 10976 10978 10979 10981 10982 10982 10983 10984 10986 10987 10989 10990 10991 10993 10994 10996 10998 10999 11001 11002 11003 11004 11005 11007 11007 11008 11009 11010 11011
10590 10596 10604 10614 10626 10642 10654 10663 10674 10686 10695 10704 10720 10738 10751 10760 10771 10781 10785 10790 10800 10807 10811 10820 10824 10821 10832 10847 10851 10857 10870 10876 10880 10886 10890 10895 10901 10906 10912 10919 10924 10928 10930 10933 10936 10939 10943 10947 10950 10953 10956 10958 10960 10961 10964 10966 10968 10970 10972 10974 10976 10977 10978 10979 10980 10982 10983 10985 10986 10987 10988 10989 10990 10993 10994 10996 10997 10998 10999 11001 11002 11003 11004 11005 11006 11007 11008
10578 10585 10594 10602 10614 10630 10640 10648 10659 10670 10680 10695 10714 10730 10742 10754 10766 10772 10776 10784 10794 10798 10804 10816 10819 10815 10825 10840 10846 10853 10864 10869 10872 10879 10885 10891 10897 10902 10909 10914 10919 10923 10926 10929 10931 10934 10938 10942 10945 10948 10951 10953 10955 10957 10960 10963 10964 10966 10968 10970 10972 10974 10975 10977 10978 10979 10981 10982 10983 10984 10985 10986 10987 10989 10990 10992 10994 10995 10996 10997 10998 11000 11001 11001 11002 11003 11004
10566 10575 10581 10587 10600 10615 10623 10632 10644 10657 10671 10688 10704 10717 10729 10742 10753 10761 10770 10783 10789 10790 10798 10811 10814 10811 10818 10830 10839 10846 10854 10858 10862 10870 10878 10885 10890 10896 10902 10908 10912 10916 10920 10924 10927 10930 10933 10936 10940 10943 10946 10948 10951 10953 10956 10958 10960 10962 10964 10966 10968 10970 10972 10974 10974 10976 10977 10978 10980 10981 10982 10983 10984 10985 10986 10988 10990 10991 10992 10993 10995 10996 10997 10998 10999 11000 11001
10555 10562 10567 10574 10586 10596 10605 10619 10635 10649 10665 10682 10693 10704 10715 10725 10735 10745 10761 10774 10777 10778 10792 10808 10809 10806 10811 10822 10830 10835 10840 10845 10852 10861 10872 10880 10886 10891 10897 10902 10907 10911 10914 10918 10921 10924 10927 10931 10935 10937 10939 10943 10946 10948 10950 10953 10956 10958 10960 10962 10965 10967 10969 10970 10971 10972 10974 10975 10976 10978 10979 10980 10981 10982 10983 10984 10985 10986 10988 10989 10991 10992 10993 10994 10995 10996 10997
10541 10548 10554 10559 10566 10579 10597 10614 10625 10638 10655 10669 10678 10691 10704 10714 10722 10733 10748 10758 10759 10768 10789 10802 10801 10800 10804 10811 10818 10823 10828 10837 10847 10858 10867 10875 10880 10884 10888 10894 10900 10904 10908 10910 10914 10917 10921 10925 10928 10930 10933 10937 10940 10943 10947 10951 10954 10955 10957 10959 10961 10963 10965 10965 10967 10968 10970 10971 10972 10974 10975 10976 10978 10979 10979 10980 10981 10982 10984 10985 10986 10987 10988 10990 10991 10992 10993
10529 10535 10538 10541 10549 10569 10592 10605 10613 10627 10643 10655 10666 10679 10691 10700 10710 10724 10739 10746 10749 10765 10784 10790 10790 10790 10792 10799 10807 10810 10819 10834 10848 10855 10861 10866 10872 10876 10881 10887 10893 10897 10901 10904 10907 10912 10915 10918 10921 10924 10928 10931 10934 10939 10943 10946 10949 10951 10953 10955 10957 10959 10960 10961 10962 10964 10966 10967 10968 10970 10971 10972 10973 10974 10975 10976 10977 10978 10980 10981 10981 10983 10984 10986 10987 10987 10989
10516 10520 10522 10530 10544 10564 10583 10596 10606 10618 10631 10644 10657 10669 10680 10692 10705 10720 10732 10736 10743 10757 10769 10774 10778 10778 10777 10786 10794 10797 10813 10834 10844 10848 10852 10857 10863 10869 10874 10881 10886 10890 10895 10898 10902 10906 10909 10912 10915 10919 10922 10925 10929 10934 10937 10940 10943 10946 10949 10951 10952 10954 10956 10956 10957 10960 10961 10963 10964 10965 10966 10967 10968 10970 10971 10972 10973 10974 10976 10977 10977 10979 10980 10981 10982 10983 10984
10503 10508 10515 10526 10538 10555 10575 10589 10594 10603 10619 10634 10646 10659 10674 10688 10699 10709 10717 10724 10733 10747 10757 10764 10770 10767 10765 10774 10783 10792 10811 10828 10834 10838 10844 10849 10856 10863 10869 10875 10880 10884 10889 10892 10896 10900 10902 10905 10909 10913 10916 10919 10923 10928 10932 10935 10939 10942 10944 10946 10947 10949 10950 10951 10952 10955 10957 10958 10959 10960 10961 10962 10963 10965 10966 10967 10968 10970 10972 10973 10974 10975 10975 10977 10978 10979 10981
10492 10496 10502 10513 10529 10550 10569 10578 10582 10593 10608 10622 10635 10649 10662 10672 10682 10693 10704 10714 10725 10737 10748 10755 10759 10756 10754 10764 10777 10792 10807 10818 10824 10831 10838 10842 10848 10856 10862 10869 10874 10879 10883 10887 10891 10893 10895 10898 10903 10906 10910 10914 10919 10923 10927 10930 10933 10936 10939 10940 10942 10943 10945 10945 10947 10950 10952 10954 10954 10956 10957 10958 10959 10960 10961 10962 10964 10965 10967 10968 10970 10971 10972 10973 10974 10975 10976
10483 10485 10491 10504 10524 10544 10556 10563 10573 10583 10594 10608 10622 10634 10644 10655 10667 10678 10691 10703 10717 10730 10740 10745 10747 10746 10746 10756 10775 10790 10799 10807 10816 10824 10830 10835 10841 10848 10855 10861 10867 10873 10878 10882 10884 10886 10888 10892 10896 10900 10905 10910 10915 10919 10922 10924 10927 10931 10933 10934 10936 10937 10939 10941 10943 10945 10947 10949 10950 10951 10952 10953 10954 10956 10956 10958 10959 10960 10962 10964 10965 10966 10967 10968 10969 10970 10971
10473 10477 10487 10501 10518 10533 10542 10552 10563 10571 10582 10597 10607 10617 10633 10648 10658 10668 10681 10696 10709 10720 10728 10733 10737 10739 10741 10752 10771 10784 10789 10796 10807 10815 10822 10829 10835 10841 10848 10854 10861 10867 10872 10875 10877 10879 10881 10886 10890 10895 10901 10906 10911 10914 10916 10919 10922 10925 10927 10928 10930 10932 10934 10937 10939 10940 10942 10944 10945 10946 10947 10949 10950 10951 10952 10954 10955 10956 10957 10959 10960 10961 10962 10964 10965 10965 10967
10463 10470 10482 10496 10510 10521 10529 10539 10550 10560 10571 10581 10590 10608 10630 10641 10649 10664 10678 10688 10697 10705 10713 10721 10726 10732 10737 10747 10764 10776 10780 10787 10798 10807 10814 10822 10829 10834 10841 10848 10855 10861 10865 10868 10871 10872 10875 10880 10886 10891 10898 10903 10906 10908 10910 10914 10917 10917 10919 10922 10925 10927 10930 10932 10933 10934 10936 10938 10939 10941 10943 10945 10946 10947 10948 10949 10950 10951 10953 10954 10955 10956 10957 10959 10960 10961 10962
10458 10467 10478 10489 10499 10508 10516 10525 10536 10546 10555 10566 10582 10605 10620 10626 10639 10657 10669 10677 10684 10692 10701 10710 10717 10724 10731 10740 10754 10766 10771 10779 10791 10798 10806 10816 10823 10829 10835 10842 10848 10854 10859 10863 10865 10866 10870 10875 10881 10887 10893 10897 10899 10902 10905 10908 10909 10909 10913 10917 10920 10922 10924 10925 10926 10928 10930 10932 10934 10936 10938 10940 10941 10942 10943 10944 10945 10947 10948 10950 10950 10951 10952 10954 10955 10956 10957
10454 10463 10473 10481 10489 10499 10507 10513 10521 10532 10544 10558 10576 10591 10602 10614 10631 10646 10656 10667 10676 10683 10692 10701 10709 10716 10724 10732 10745 10757 10764 10772 10782 10790 10799 10809 10817 10824 10830 10836 10842 10848 10854 10857 10858 10860 10865 10871 10876 10883 10888 10890 10893 10896 10898 10900 10902 10904 10908 10912 10914 10916 10918 10920 10921 10922 10925 10928 10929 10931 10933 10935 10937 10938 10939 10940 10941 10942 10943 10945 10945 10946 10948 10949 10950 10951 10951
10449 10458 10467 10475 10482 10490 10496 10502 10511 10523 10536 10550 10564 10579 10594 10610 10624 10636 10647 10659 10669 10678 10687 10695 10701 10709 10716 10725 10737 10748 10756 10764 10772 10781 10790 10800 10810 10818 10823 10830 10836 10842 10847 10850 10851 10855 10860 10866 10872 10877 10881 10883 10886 10888 10889 10893 10898 10900 10903 10907 10909 10910 10912 10914 10915 10917 10921 10923 10925 10926 10929 10930 10932 10933 10934 10935 10936 10937 10938 10940 10940 10941 10943 10943 10944 10945 10945
10445 10452 10459 10465 10473 10480 10487 10495 10506 10516 10527 10541 10557 10575 10593 10607 10618 10629 10641 10652 10662 10672 10681 10688 10695 10702 10709 10717 10728 10740 10749 10756 10764 10774 10783 10792 10802 10811 10817 10823 10830 10835 10840 10843 10846 10850 10856 10862 10867 10870 10873 10877 10879 10880 10884 10891 10894 10895 10898 10901 10903 10904 10907 10908 10909 10913 10916 10919 10920 10923 10924 10926 10927 10928 10929 10930 10931 10932 10933 10934 10935 10936 10937 10938 10938 10938 10939
10441 10446 10452 10458 10465 10473 10480 10489 10500 10511 10524 10539 10555 10570 10586 10599 10611 10623 10634 10644 10655 10665 10673 10680 10687 10694 10701 10710 10721 10733 10742 10747 10755 10767 10776 10784 10793 10802 10809 10816 10822 10828 10833 10837 10841 10847 10853 10857 10860 10864 10867 10870 10871 10874 10881 10887 10888 10889 10892 10896 10897 10900 10902 10903 10904 10908 10912 10914 10916 10918 10919 10921 10922 10922 10923 10924 10925 10926 10927 10928 10929 10930 10930 10931 10932 10932 10933
10437 10441 10446 10452 10460 10467 10474 10484 10495 10507 10521 10536 10549 10562 10577 10591 10602 10614 10626 10636 10647 10657 10666 10673 10679 10686 10695 10703 10714 10727 10735 10739 10749 10761 10770 10777 10786 10794 10802 10809 10816 10821 10826 10831 10836 10842 10848 10851 10854 10857 10860 10863 10865 10870 10877 10880 10881 10883 10887 10890 10892 10894 10897 10897 10900 10904 10907 10909 10912 10913 10914 10915 10916 10917 10918 10919 10919 10920 10921 10922 10923 10924 10924 10925 10926 10926 10927
10432 10436 10441 10447 10454 10462 10470 10480 10491 10503 10516 10529 10541 10554 10569 10582 10594 10606 10618 10629 10639 10649 10658 10665 10672 10679 10687 10696 10707 10720 10728 10733 10744 10756 10764 10771 10779 10788 10796 10804 10810 10815 10820 10825 10831 10837 10842 10846 10848 10850 10853 10856 10860 10865 10869 10872 10875 10879 10881 10883 10886 10889 10891 10893 10896 10899 10902 10904 10906 10907 10909 10910 10911 10911 10913 10913 10914 10914 10916 10917 10918 10918 10919 10920 10920 10920 10921
10429 10433 10438 10445 10451 10458 10466 10475 10485 10498 10511 10523 10534 10548 10562 10575 10587 10599 10611 10622 10633 10642 10650 10658 10665 10672 10680 10690 10701 10714 10723 10730 10741 10752 10760 10766 10774 10784 10792 10799 10805 10810 10815 10820 10826 10831 10835 10838 10840 10843 10846 10850 10854 10858 10861 10866 10870 10873 10875 10877 10879 10882 10885 10888 10891 10894 10896 10898 10900 10901 10903 10904 10905 10906 10907 10907 10908 10909 10911 10912 10912 10913 10914 10914 10915 10915 10916
10426 10430 10436 10442 10448 10455 10462 10470 10479 10492 10505 10518 10530 10543 10556 10567 10579 10592 10604 10615 10626 10635 10644 10652 10658 10665 10673 10684 10696 10708 10717 10726 10737 10749 10755 10761 10770 10779 10786 10792 10798 10803 10808 10814 10819 10823 10826 10829 10833 10837 10841 10845 10849 10852 10856 10861 10864 10867 10869 10871 10873 10876 10879 10883 10885 10888 10890 10892 10894 10895 10897 10898 10898 10900 10901 10902 10903 10905 10906 10906 10907 10908 10909 10909 10909 10910 10911
10423 10428 10434 10439 10445 10451 10458 10466 10476 10487 10500 10511 10523 10535 10548 10560 10572 10584 10596 10608 10618 10628 10637 10645 10652 10658 10667 10678 10690 10701 10711 10724 10740 10751 10755 10758 10765 10772 10777 10783 10790 10795 10800 10807 10811 10814 10818 10823 10828 10832 10837 10841 10845 10847 10851 10855 10857 10860 10862 10864 10866 10870 10873 10876 10880 10882 10884 10886 10887 10889 10891 10892 10893 10894 10896 10897 10898 10899 10900 10900 10901 10902 10903 10903 10904 10905 10906
10422 10427 10432 10437 10442 10449 10455 10463 10473 10483 10494 10504 10515 10527 10539 10552 10564 10576 10589 10600 10611 10620 10628 10637 10644 10651 10661 10673 10685 10695 10708 10725 10742 10754 10756 10755 10759 10765 10770 10776 10782 10787 10793 10798 10803 10807 10812 10817 10822 10826 10830 10834 10837 10840 10845 10848 10850 10852 10855 10857 10860 10863 10867 10870 10874 10876 10878 10879 10880 10883 10885 10886 10887 10889 10891 10892 10893 10894 10894 10895 10896 10897 10898 10898 10899 10900 10900
10421 10426 10430 10435 10440 10446 10453 10461 10470 10480 10489 10498 10509 10521 10532 10544 10557 10570 10581 10592 10602 10611 10620 10629 10636 10644 10655 10669 10681 10692 10706 10722 10736 10747 10750 10749 10751 10757 10763 10768 10774 10780 10785 10790 10796 10801 10805 10810 10815 10819 10822 10825 10829 10834 10838 10841 10843 10845 10847 10850 10854 10857 10861 10865 10869 10870 10871 10873 10874 10877 10880 10881 10882 10885 10886 10887 10887 10888 10888 10890 10891 10892 10893 10893 10894 10894 10894
10418 10423 10428 10434 10439 10444 10451 10459 10467 10477 10485 10494 10504 10516 10527 10539 10551 10562 10573 10584 10594 10603 10611 10620 10627 10636 10649 10664 10676 10687 10702 10717 10730 10740 10744 10742 10742 10748 10754 10759 10765 10771 10778 10784 10790 10794 10798 10802 10807 10811 10814 10817 10821 10826 10830 10833 10835 10838 10841 10844 10848 10852 10856 10860 10863 10863 10865 10867 10868 10871 10874 10875 10877 10879 10881 10881 10882 10882 10883 10884 10886 10887 10887 10888 10888 10889 10888
10417 10421 10426 10431 10437 10443 10449 10457 10464 10472 10481 10490 10500 10511 10522 10534 10545 10555 10566 10577 10586 10595 10604 10612 10620 10629 10643 10658 10670 10682 10696 10710 10722 10732 10737 10736 10735 10738 10743 10749 10756 10763 10770 10778 10784 10788 10790 10794 10799 10802 10806 10810 10814 10818 10822 10824 10828 10832 10835 10839 10843 10847 10851 10854 10855 10856 10858 10861 10863 10866 10869 10869 10870 10873 10875 10875 10875 10876 10878 10879 10880 10881 10882 10882 10883 10883 10883
10416 10421 10425 10430 10435 10440 10447 10454 10461 10469 10477 10486 10495 10505 10516 10528 10538 10548 10560 10570 10578 10588 10597 10605 10613 10624 10637 10652 10665 10676 10688 10700 10713 10724 10731 10732 10730 10730 10734 10740 10747 10754 10763 10771 10778 10782 10782 10785 10790 10794 10797 10802 10807 10811 10814 10818 10822 10826 10829 10834 10839 10843 10845 10847 10848 10850 10853 10855 10857 10860 10862 10863 10864 10867 10868 10868 10869 10871 10873 10874 10874 10875 10876 10877 10877 10877 10877
10415 10420 10424 10429 10433 10439 10445 10452 10459 10467 10475 10482 10491 10500 10510 10521 10532 10543 10554 10563 10572 10582 10591 10599 10608 10619 10632 10645 10658 10668 10679 10691 10705 10717 10725 10727 10724 10723 10725 10730 10737 10745 10754 10762 10770 10773 10773 10775 10781 10785 10789 10794 10799 10803 10807 10812 10815 10819 10823 10829 10833 10836 10839 10840 10841 10844 10847 10849 10851 10853 10855 10857 10859 10861 10861 10861 10863 10866 10867 10867 10868 10870 10871 10871 10872 10872 10871
10415 10419 10423 10427 10432 10438 10444 10450 10457 10464 10472 10479 10487 10495 10505 10515 10526 10538 10548 10558 10569 10579 10586 10593 10602 10614 10626 10639 10650 10660 10671 10684 10697 10708 10715 10718 10717 10716 10717 10721 10727 10735 10743 10751 10757 10761 10763 10766 10772 10776 10781 10787 10792 10796 10801 10805 10808 10812 10817 10822 10826 10830 10832 10832 10835 10838 10841 10842 10844 10847 10849 10851 10853 10855 10854 10855 10858 10860 10860 10861 10863 10864 10864 10866 10866 10866 10866
10415 10418 10422 10426 10430 10436 10441 10448 10454 10461 10469 10476 10483 10492 10502 10511 10522 10533 10544 10554 10564 10573 10580 10588 10598 10609 10621 10632 10642 10652 10664 10677 10690 10698 10703 10706 10709 10710 10711 10714 10719 10726 10733 10739 10745 10750 10753 10758 10762 10767 10772 10778 10784 10789 10794 10797 10800 10804 10810 10815 10819 10822 10824 10825 10829 10833 10835 10836 10838 10842 10844 10845 10846 10847 10848 10850 10852 10854 10854 10855 10856 10857 10858 10860 10860 10860 10860
10413 10417 10420 10424 10428 10433 10439 10445 10451 10458 10465 10472 10480 10489 10499 10509 10519 10529 10540 10550 10558 10566 10573 10582 10592 10603 10614 10624 10634 10645 10657 10670 10680 10687 10691 10694 10698 10701 10703 10706 10710 10716 10722 10728 10733 10738 10743 10748 10754 10760 10767 10773 10778 10783 10787 10789 10792 10797 10802 10807 10811 10814 10816 10819 10823 10827 10828 10830 10833 10836 10837 10838 10839 10840 10842 10844 10846 10847 10848 10849 10850 10851 10853 10854 10854 10854 10854
10412 10415 10418 10422 10426 10431 10436 10442 10448 10455 10462 10469 10476 10484 10495 10505 10515 10525 10534 10544 10552 10558 10566 10574 10584 10594 10605 10616 10628 10639 10650 10660 10668 10675 10679 10682 10685 10690 10695 10699 10701 10705 10711 10717 10721 10726 10732 10739 10746 10755 10762 10765 10769 10774 10777 10780 10783 10788 10793 10798 10802 10806 10810 10814 10817 10819 10822 10824 10827 10829 10830 10830 10832 10833 10835 10837 10839 10840 10842 10844 10844 10845 10846 10847 10847 10848 10848
10411 10414 10417 10420 10425 10429 10434 10439 10445 10452 10459 10465 10472 10480 10488 10496 10505 10515 10525 10534 10542 10549 10556 10566 10575 10585 10597 10609 10621 10631 10641 10649 10657 10664 10668 10670 10674 10679 10686 10691 10695 10698 10702 10707 10710 10716 10723 10731 10739 10747 10753 10755 10759 10765 10769 10772 10775 10780 10785 10791 10795 10799 10803 10806 10810 10813 10815 10816 10818 10820 10822 10823 10825 10826 10828 10831 10833 10834 10836 10837 10838 10839 10839 10839 10840 10840 10841
10411 10413 10415 10419 10423 10427 10431 10436 10441 10448 10454 10460 10468 10475 10482 10488 10496 10506 10514 10522 10529 10537 10546 10556 10566 10577 10589 10602 10613 10622 10631 10639 10648 10654 10658 10661 10666 10670 10676 10683 10689 10693 10695 10698 10702 10708 10716 10724 10731 10738 10743 10747 10753 10760 10765 10768 10769 10773 10779 10785 10789 10791 10793 10797 10803 10808 10809 10809 10809 10812 10815 10817 10819 10820 10822 10825 10827 10828 10829 10830 10831 10831 10831 10831 10831 10831 10832
10409 10412 10414 10417 10420 10424 10429 10433 10438 10444 10450 10456 10463 10471 10478 10485 10493 10501 10507 10514 10521 10529 10537 10546 10557 10569 10581 10594 10604 10613 10621 10630 10638 10644 10649 10653 10658 10662 10668 10675 10681 10685 10687 10689 10694 10700 10707 10715 10722 10728 10734 10739 10746 10755 10764 10769 10770 10769 10772 10776 10780 10782 10784 10789 10796 10801 10802 10801 10801 10804 10807 10810 10813 10814 10816 10819 10821 10822 10822 10822 10822 10822 10822 10821 10822 10822 10823
10405 10409 10412 10415 10417 10421 10425 10430 10435 10441 10446 10451 10458 10465 10473 10482 10490 10497 10503 10509 10517 10524 10532 10541 10551 10562 10575 10586 10596 10605 10613 10621 10630 10636 10641 10645 10650 10655 10660 10666 10671 10675 10678 10681 10685 10691 10698 10705 10713 10720 10725 10731 10738 10748 10758 10764 10764 10762 10764 10767 10771 10774 10777 10781 10786 10790 10792 10793 10794 10797 10799 10802 10805 10808 10810 10812 10813 10814 10814 10814 10813 10812 10811 10811 10812 10813 10814
10401 10405 10409 10412 10415 10418 10422 10427 10432 10437 10443 10448 10454 10460 10468 10477 10486 10493 10500 10506 10512 10519 10528 10537 10547 10558 10569 10579 10588 10596 10604 10613 10621 10627 10632 10637 10642 10647 10652 10657 10662 10666 10670 10672 10677 10683 10689 10696 10703 10710 10716 10722 10729 10738 10746 10750 10752 10755 10760 10764 10765 10766 10769 10772 10776 10779 10783 10785 10787 10788 10791 10795 10798 10800 10803 10805 10805 10805 10806 10809 10808 10806 10803 10803 10804 10805 10806
10397 10401 10404 10408 10412 10416 10419 10423 10428 10434 10439 10445 10451 10457 10463 10471 10480 10488 10495 10501 10508 10515 10524 10533 10543 10553 10562 10570 10579 10587 10595 10604 10612 10618 10622 10627 10633 10639 10644 10649 10654 10659 10662 10665 10669 10675 10681 10688 10694 10700 10706 10713 10720 10727 10734 10739 10743 10748 10755 10760 10760 10759 10760 10763 10766 10770 10774 10776 10778 10780 10783 10786 10789 10792 10796 10798 10798 10797 10799 10802 10804 10802 10800 10800 10800 10799 10799
10393 10396 10400 10404 10408 10413 10417 10421 10425 10430 10435 10441 10447 10453 10460 10467 10474 10481 10489 10496 10504 10511 10519 10527 10536 10545 10554 10562 10570 10579 10587 10596 10603 10609 10613 10619 10625 10631 10637 10641 10646 10651 10655 10658 10662 10668 10674 10680 10686 10691 10697 10704 10710 10715 10722 10727 10732 10738 10745 10750 10752 10752 10752 10754 10757 10763 10767 10769 10771 10773 10775 10777 10780 10783 10787 10789 10790 10790 10791 10794 10796 10796 10795 10796 10797 10797 10796
10388 10392 10395 10399 10404 10409 10413 10417 10422 10426 10431 10436 10442 10449 10456 10464 10470 10477 10484 10491 10498 10505 10513 10521 10529 10538 10546 10554 10563 10571 10579 10587 10594 10599 10604 10611 10618 10624 10629 10634 10638 10643 10648 10651 10655 10661 10666 10672 10678 10683 10689 10695 10701 10706 10711 10716 10720 10727 10733 10738 10740 10742 10744 10747 10750 10755 10759 10760 10762 10763 10765 10767 10770 10774 10777 10780 10781 10782 10783 10786 10789 10789 10787 10789 10793 10794 10793
10384 10387 10391 10394 10399 10404 10409 10413 10418 10422 10427 10432 10437 10444 10451 10459 10466 10473 10479 10485 10492 10499 10507 10515 10524 10531 10538 10547 10555 10563 10571 10579 10585 10591 10597 10604 10611 10617 10622 10627 10631 10636 10641 10645 10649 10654 10659 10664 10669 10674 10679 10685 10691 10696 10700 10704 10709 10714 10720 10725 10729 10732 10735 10739 10743 10746 10748 10749 10751 10753 10755 10757 10760 10764 10768 10770 10772 10772 10773 10777 10780 10779 10777 10779 10782 10784 10783
10380 10384 10387 10390 10394 10398 10404 10409 10413 10418 10422 10427 10433 10438 10445 10452 10460 10467 10474 10480 10487 10494 10501 10510 10517 10524 10531 10539 10547 10555 10563 10571 10578 10584 10590 10597 10603 10609 10615 10620 10625 10630 10634 10638 10642 10646 10650 10655 10660 10664 10669 10674 10680 10685 10690 10694 10698 10702 10708 10713 10718 10721 10725 10729 10733 10736 10738 10740 10742 10743 10745 10748 10751 10755 10758 10760 10763 10764 10766 10768 10769 10770 10769 10769 10771 10772 10772
10377 10380 10383 10385 10389 10393 10398 10404 10409 10413 10418 10423 10428 10434 10440 10446 10453 10460 10467 10474 10481 10488 10495 10503 10510 10517 10524 10531 10539 10547 10555 10563 10569 10576 10582 10589 10595 10600 10606 10612 10618 10622 10626 10630 10634 10638 10642 10646 10650 10654 10659 10664 10670 10675 10680 10684 10688 10692 10696 10701 10705 10710 10715 10719 10722 10726 10729 10731 10733 10734 10736 10739 10742 10744 10747 10749 10752 10755 10757 10759 10760 10760 10761 10760 10761 10762 10763
10373 10376 10378 10381 10384 10388 10393 10398 10403 10408 10413 10418 10423 10429 10435 10441 10447 10454 10460 10467 10474 10481 10489 10496 10503 10510 10517 10524 10531 10539 10547 10554 10561 10567 10574 10580 10585 10591 10597 10603 10609 10613 10617 10621 10625 10629 10633 10637 10641 10645 10650 10655 10660 10665 10670 10674 10677 10681 10686 10690 10694 10699 10704 10709 10712 10715 10718 10721 10723 10725 10727 10729 10731 10734 10736 10739 10742 10745 10747 10748 10749 10750 10751 10752 10753 10753 10753
10369 10372 10374 10376 10380 10384 10388 10392 10397 10403 10408 10413 10418 10423 10429 10435 10442 10448 10454 10461 10468 10475 10482 10489 10496 10503 10509 10516 10523 10530 10538 10545 10552 10559 10565 10570 10575 10581 10588 10593 10598 10603 10608 10612 10616 10620 10624 10629 10632 10637 10642 10647 10651 10656 10660 10665 10668 10672 10676 10680 10684 10688 10693 10697 10701 10704 10707 10710 10713 10715 10717 10719 10721 10724 10726 10729 10731 10733 10735 10737 10739 10740 10740 10742 10743 10743 10743
10365 10368 10370 10372 10375 10379 10383 10388 10392 10397 10403 10408 10413 10418 10423 10429 10435 10441 10448 10454 10461 10468 10475 10482 10489 10495 10501 10507 10515 10522 10530 10537 10543 10549 10555 10560 10566 10572 10578 10583 10588 10593 10598 10603 10607 10611 10616 10620 10624 10629 10634 10638 10643 10647 10651 10656 10660 10664 10668 10671 10675 10679 10683 10687 10691 10694 10697 10700 10703 10705 10707 10710 10712 10714 10716 10718 10721 10722 10724 10726 10728 10729 10729 10730 10731 10732 10732
10360 10363 10366 10368 10371 10375 10378 10382 10387 10392 10397 10403 10408 10413 10418 10423 10429 10435 10441 10447 10454 10461 10468 10474 10481 10487 10493 10499 10506 10513 10521 10527 10533 10539 10546 10552 10557 10563 10569 10574 10579 10584 10589 10593 10598 10602 10607 10611 10616 10621 10625 10630 10634 10638 10642 10646 10651 10656 10659 10663 10666 10670 10673 10677 10680 10684 10687 10690 10693 10695 10698 10700 10702 10704 10706 10708 10710 10712 10714 10715 10717 10718 10718 10719 10719 10719 10719
10355 10358 10361 10364 10367 10370 10373 10377 10381 10386 10391 10397 10402 10407 10412 10418 10423 10429 10434 10440 10446 10453 10460 10466 10472 10478 10484 10491 10497 10504 10511 10517 10523 10529 10536 10543 10549 10554 10559 10564 10570 10575 10579 10584 10588 10592 10597 10601 10606 10611 10616 10621 10625 10629 10633 10637 10642 10646 10650 10654 10657 10660 10663 10666 10670 10673 10676 10679 10682 10684 10687 10690 10692 10694 10696 10698 10700 10702 10703 10704 10705 10707 10708 10708 10707 10707 10707
10350 10354 10356 10359 10362 10365 10368 10372 10376 10381 10385 10390 10395 10401 10406 10411 10417 10423 10428 10433 10439 10445 10451 10457 10464 10470 10476 10482 10489 10495 10501 10507 10513 10520 10526 10533 10539 10544 10549 10555 10560 10565 10570 10574 10579 10583 10587 10592 10597 10602 10607 10611 10616 10619 10623 10628 10632 10636 10640 10643 10647 10650 10653 10656 10659 10662 10665 10668 10671 10673 10676 10678 10681 10683 10685 10687 10689 10691 10693 10694 10695 10696 10697 10696 10696 10695 10695
10345 10349 10351 10354 10357 10360 10363 10367 10370 10375 10380 10384 10389 10394 10399 10405 10411 10416 10422 10427 10432 10438 10443 10449 10456 10461 10468 10474 10480 10486 10492 10498 10504 10511 10517 10523 10529 10534 10540 10545 10550 10555 10560 10565 10570 10574 10579 10583 10588 10592 10597 10602 10606 10610 10614 10618 10622 10625 10629 10633 10636 10639 10642 10645 10648 10651 10654 10657 10660 10663 10665 10668 10670 10672 10674 10676 10678 10681 10683 10684 10685 10685 10685 10684 10684 10683 10683
10341 10343 10346 10349 10352 10355 10358 10361 10365 10369 10373 10378 10383 10388 10393 10398 10404 10409 10414 10420 10425 10430 10436 10442 10448 10454 10460 10466 10471 10477 10483 10489 10495 10501 10507 10513 10520 10525 10531 10536 10541 10546 10551 10556 10561 10566 10570 10575 10579 10583 10587 10592 10596 10600 10604 10608 10612 10615 10619 10623 10626 10629 10632 10635 10638 10641 10644 10647 10650 10653 10655 10657 10660 10662 10664 10666 10668 10671 10672 10673 10673 10672 10671 10671 10671 10672 10672